| time (UTC) | temp F | wind direction | speed MPH | gust MPH | rain 1hr in | rain 24hr in | rain mn in | humidity % | barometer mb |
| 20260904002044 | 88 | 141 | 10.0 | 12.0 | 0.00 | 0.00 | 0.00 | 29 | 1008.8 |
| 20260904001546 | 88 | 128 | 9.0 | 14.0 | 0.00 | 0.00 | 0.00 | 29 | 1008.8 |
| 20260904001045 | 88 | 137 | 11.0 | 17.0 | 0.00 | 0.00 | 0.00 | 30 | 1008.8 |
| 20260904000546 | 88 | 135 | 12.0 | 16.0 | 0.00 | 0.00 | 0.00 | 30 | 1008.8 |
| 20260904000048 | 88 | 133 | 13.0 | 20.0 | 0.00 | 0.00 | 0.00 | 30 | 1008.8 |
| 20260903235543 | 88 | 133 | 14.0 | 18.0 | 0.00 | 0.00 | 0.00 | 30 | 1008.8 |
| 20260903235044 | 89 | 139 | 11.0 | 16.0 | 0.00 | 0.00 | 0.00 | 29 | 1008.8 |
| 20260903234546 | 89 | 107 | 11.0 | 16.0 | 0.00 | 0.00 | 0.00 | 29 | 1007.8 |
| 20260903234045 | 89 | 109 | 12.0 | 18.0 | 0.00 | 0.00 | 0.00 | 29 | 1007.8 |
| 20260903233542 | 89 | 132 | 11.0 | 15.0 | 0.00 | 0.00 | 0.00 | 29 | 1007.8 |
| 20260903233039 | 89 | 138 | 10.0 | 15.0 | 0.00 | 0.00 | 0.00 | 29 | 1007.8 |
| 20260903232538 | 89 | 124 | 12.0 | 15.0 | 0.00 | 0.00 | 0.00 | 29 | 1007.8 |
| 20260903231542 | 90 | 131 | 10.0 | 18.0 | 0.00 | 0.00 | 0.00 | 29 | 1007.8 |
| 20260903231036 | 90 | 137 | 8.0 | 18.0 | 0.00 | 0.00 | 0.00 | 30 | 1007.8 |
| 20260903230538 | 89 | 115 | 15.0 | 19.0 | 0.00 | 0.00 | 0.00 | 30 | 1007.8 |
| 20260903230035 | 90 | 111 | 10.0 | 14.0 | 0.00 | 0.00 | 0.00 | 30 | 1007.8 |
| 20260903225533 | 90 | 160 | 8.0 | 13.0 | 0.00 | 0.00 | 0.00 | 30 | 1007.8 |
| 20260903225021 | 89 | 148 | 10.0 | 17.0 | 0.00 | 0.00 | 0.00 | 30 | 1007.8 |
| 20260903224523 | 90 | 91 | 8.0 | 15.0 | 0.00 | 0.00 | 0.00 | 30 | 1007.8 |
| 20260903224022 | 90 | 135 | 10.0 | 15.0 | 0.00 | 0.00 | 0.00 | 29 | 1007.8 |
| 20260903223025 | 91 | 113 | 9.0 | 12.0 | 0.00 | 0.00 | 0.00 | 29 | 1007.8 |
| 20260903222524 | 90 | 107 | 11.0 | 17.0 | 0.00 | 0.00 | 0.00 | 30 | 1007.8 |
| 20260903221523 | 89 | 113 | 14.0 | 18.0 | 0.00 | 0.00 | 0.00 | 30 | 1007.8 |
| 20260903221022 | 90 | 111 | 15.0 | 15.0 | 0.00 | 0.00 | 0.00 | 31 | 1007.8 |
| 20260903220519 | 89 | 115 | 14.0 | 15.0 | 0.00 | 0.00 | 0.00 | 31 | 1007.8 |
| 20260903220021 | 90 | 117 | 12.0 | 12.0 | 0.00 | 0.00 | 0.00 | 31 | 1007.8 |
| 20260903215520 | 90 | 109 | 10.0 | 14.0 | 0.00 | 0.00 | 0.00 | 32 | 1007.8 |
| 20260903215022 | 89 | 117 | 10.0 | 14.0 | 0.00 | 0.00 | 0.00 | 32 | 1007.8 |
| 20260903214523 | 89 | 136 | 9.0 | 13.0 | 0.00 | 0.00 | 0.00 | 32 | 1008.8 |
| 20260903214022 | 90 | 112 | 7.0 | 13.0 | 0.00 | 0.00 | 0.00 | 31 | 1008.8 |
| 20260903213524 | 89 | 116 | 10.0 | 13.0 | 0.00 | 0.00 | 0.00 | 33 | 1008.8 |
| 20260903213026 | 90 | 124 | 9.0 | 12.0 | 0.00 | 0.00 | 0.00 | 32 | 1008.8 |
| 20260903212524 | 89 | 92 | 6.0 | 13.0 | 0.00 | 0.00 | 0.00 | 33 | 1008.8 |
| 20260903212026 | 90 | 149 | 10.0 | 12.0 | 0.00 | 0.00 | 0.00 | 33 | 1008.8 |
| 20260903211528 | 89 | 135 | 6.0 | 9.0 | 0.00 | 0.00 | 0.00 | 34 | 1008.8 |
| 20260903211027 | 89 | 119 | 6.0 | 11.0 | 0.00 | 0.00 | 0.00 | 34 | 1008.8 |
| 20260903210529 | 89 | 123 | 6.0 | 10.0 | 0.00 | 0.00 | 0.00 | 34 | 1008.8 |
| 20260903210030 | 88 | 147 | 7.0 | 11.0 | 0.00 | 0.00 | 0.00 | 35 | 1008.8 |
| 20260903205506 | 88 | 128 | 10.0 | 13.0 | 0.00 | 0.00 | 0.00 | 37 | 1008.8 |
| 20260903205008 | 88 | 127 | 8.0 | 11.0 | 0.00 | 0.00 | 0.00 | 36 | 1008.8 |
| 20260903204509 | 88 | 112 | 5.0 | 13.0 | 0.00 | 0.00 | 0.00 | 35 | 1008.8 |
| 20260903204009 | 89 | 231 | 6.0 | 13.0 | 0.00 | 0.00 | 0.00 | 35 | 1008.8 |
| 20260903203510 | 88 | 112 | 8.0 | 13.0 | 0.00 | 0.00 | 0.00 | 35 | 1008.8 |
| 20260903202510 | 88 | 150 | 7.0 | 9.0 | 0.00 | 0.00 | 0.00 | 35 | 1008.8 |
| 20260903202007 | 88 | 159 | 7.0 | 11.0 | 0.00 | 0.00 | 0.00 | 35 | 1008.8 |
| 20260903201504 | 88 | 126 | 5.0 | 14.0 | 0.00 | 0.00 | 0.00 | 37 | 1008.8 |
| 20260903201003 | 88 | 144 | 8.0 | 11.0 | 0.00 | 0.00 | 0.00 | 37 | 1008.8 |
| 20260903200505 | 88 | 128 | 5.0 | 15.0 | 0.00 | 0.00 | 0.00 | 37 | 1008.8 |
| 20260903200006 | 88 | 162 | 9.0 | 13.0 | 0.00 | 0.00 | 0.00 | 38 | 1008.8 |
| 20260903195505 | 87 | 132 | 9.0 | 14.0 | 0.00 | 0.00 | 0.00 | 38 | 1008.8 |
| 20260903195007 | 88 | 132 | 7.0 | 12.0 | 0.00 | 0.00 | 0.00 | 38 | 1008.8 |
| 20260903194509 | 88 | 153 | 7.0 | 9.0 | 0.00 | 0.00 | 0.00 | 38 | 1009.8 |
| 20260903194007 | 88 | 124 | 6.0 | 10.0 | 0.00 | 0.00 | 0.00 | 38 | 1009.8 |
| 20260903193509 | 88 | 200 | 5.0 | 10.0 | 0.00 | 0.00 | 0.00 | 38 | 1009.8 |
| 20260903193011 | 88 | 133 | 6.0 | 10.0 | 0.00 | 0.00 | 0.00 | 38 | 1009.8 |
| 20260903192505 | 87 | 173 | 5.0 | 12.0 | 0.00 | 0.00 | 0.00 | 38 | 1009.8 |
| 20260903192007 | 87 | 186 | 5.0 | 12.0 | 0.00 | 0.00 | 0.00 | 39 | 1009.8 |
| 20260903191508 | 87 | 247 | 7.0 | 15.0 | 0.00 | 0.00 | 0.00 | 39 | 1009.8 |
| 20260903191007 | 87 | 213 | 8.0 | 15.0 | 0.00 | 0.00 | 0.00 | 39 | 1009.8 |
| 20260903190504 | 87 | 128 | 7.0 | 16.0 | 0.00 | 0.00 | 0.00 | 40 | 1009.8 |
| 20260903190006 | 87 | 146 | 8.0 | 11.0 | 0.00 | 0.00 | 0.00 | 38 | 1009.8 |
| 20260903185504 | 87 | 128 | 6.0 | 12.0 | 0.00 | 0.00 | 0.00 | 38 | 1009.8 |
| 20260903184508 | 88 | 124 | 8.0 | 14.0 | 0.00 | 0.00 | 0.00 | 35 | 1009.8 |
| 20260903184007 | 88 | 125 | 7.0 | 16.0 | 0.00 | 0.00 | 0.00 | 34 | 1009.8 |
| 20260903183509 | 88 | 192 | 8.0 | 13.0 | 0.00 | 0.00 | 0.00 | 33 | 1009.8 |
| 20260903183011 | 88 | 223 | 6.0 | 14.0 | 0.00 | 0.00 | 0.00 | 32 | 1010.8 |
| 20260903182509 | 88 | 134 | 7.0 | 11.0 | 0.00 | 0.00 | 0.00 | 32 | 1010.8 |
| 20260903182011 | 89 | 212 | 8.0 | 15.0 | 0.00 | 0.00 | 0.00 | 32 | 1010.8 |
| 20260903181513 | 88 | 177 | 10.0 | 12.0 | 0.00 | 0.00 | 0.00 | 31 | 1010.8 |
| 20260903181011 | 89 | 130 | 7.0 | 16.0 | 0.00 | 0.00 | 0.00 | 31 | 1010.8 |
| 20260903180509 | 88 | 137 | 9.0 | 13.0 | 0.00 | 0.00 | 0.00 | 32 | 1010.8 |
| 20260903180006 | 89 | 110 | 6.0 | 15.0 | 0.00 | 0.00 | 0.00 | 32 | 1010.8 |
| 20260903175456 | 88 | 136 | 12.0 | 13.0 | 0.00 | 0.00 | 0.00 | 33 | 1010.8 |
| 20260903174957 | 88 | 204 | 7.0 | 12.0 | 0.00 | 0.00 | 0.00 | 32 | 1010.8 |
| 20260903174459 | 88 | 222 | 8.0 | 17.0 | 0.00 | 0.00 | 0.00 | 32 | 1010.8 |
| 20260903173953 | 88 | 214 | 7.0 | 15.0 | 0.00 | 0.00 | 0.00 | 32 | 1010.8 |
| 20260903173455 | 88 | 123 | 11.0 | 10.0 | 0.00 | 0.00 | 0.00 | 34 | 1010.8 |
| 20260903172957 | 89 | 125 | 5.0 | 11.0 | 0.00 | 0.00 | 0.00 | 34 | 1010.8 |
| 20260903172445 | 88 | 210 | 4.0 | 12.0 | 0.00 | 0.00 | 0.00 | 36 | 1010.8 |
| 20260903171947 | 87 | 109 | 7.0 | 11.0 | 0.00 | 0.00 | 0.00 | 37 | 1010.8 |
| 20260903171449 | 87 | 173 | 9.0 | 12.0 | 0.00 | 0.00 | 0.00 | 38 | 1010.8 |
| 20260903170948 | 87 | 110 | 6.0 | 12.0 | 0.00 | 0.00 | 0.00 | 38 | 1010.8 |
| 20260903170445 | 88 | 201 | 6.0 | 12.0 | 0.00 | 0.00 | 0.00 | 38 | 1010.8 |
| 20260903165946 | 87 | 121 | 9.0 | 13.0 | 0.00 | 0.00 | 0.00 | 39 | 1010.8 |
| 20260903165445 | 87 | 134 | 7.0 | 10.0 | 0.00 | 0.00 | 0.00 | 39 | 1010.8 |
| 20260903164947 | 86 | 227 | 7.0 | 10.0 | 0.00 | 0.00 | 0.00 | 41 | 1010.8 |
| 20260903164449 | 86 | 187 | 7.0 | 12.0 | 0.00 | 0.00 | 0.00 | 41 | 1010.8 |
| 20260903163947 | 86 | 225 | 7.0 | 10.0 | 0.00 | 0.00 | 0.00 | 41 | 1010.8 |
| 20260903163449 | 85 | 223 | 3.0 | 9.0 | 0.00 | 0.00 | 0.00 | 44 | 1010.8 |
| 20260903162951 | 85 | 195 | 7.0 | 12.0 | 0.00 | 0.00 | 0.00 | 43 | 1010.8 |
| 20260903162450 | 85 | 222 | 7.0 | 11.0 | 0.00 | 0.00 | 0.00 | 46 | 1010.8 |
| 20260903161952 | 84 | 98 | 7.0 | 9.0 | 0.00 | 0.00 | 0.00 | 48 | 1010.8 |
| 20260903161453 | 84 | 133 | 6.0 | 12.0 | 0.00 | 0.00 | 0.00 | 48 | 1010.8 |
| 20260903160952 | 84 | 136 | 7.0 | 7.0 | 0.00 | 0.00 | 0.00 | 47 | 1010.8 |
| 20260903160449 | 84 | 165 | 3.0 | 10.0 | 0.00 | 0.00 | 0.00 | 50 | 1010.8 |
| 20260903155951 | 83 | 137 | 5.0 | 8.0 | 0.00 | 0.00 | 0.00 | 50 | 1010.8 |
| 20260903155449 | 83 | 132 | 6.0 | 10.0 | 0.00 | 0.00 | 0.00 | 53 | 1010.8 |
| 20260903154453 | 83 | 98 | 5.0 | 9.0 | 0.00 | 0.00 | 0.00 | 56 | 1010.8 |
| 20260903153952 | 82 | 131 | 5.0 | 9.0 | 0.00 | 0.00 | 0.00 | 58 | 1010.8 |
| 20260903153454 | 82 | 115 | 6.0 | 10.0 | 0.00 | 0.00 | 0.00 | 59 | 1010.8 |
| 20260903152955 | 81 | 134 | 5.0 | 10.0 | 0.00 | 0.00 | 0.00 | 60 | 1010.8 |
| 20260903152454 | 81 | 155 | 5.0 | 9.0 | 0.00 | 0.00 | 0.00 | 61 | 1010.8 |
| 20260903151956 | 81 | 200 | 4.0 | 10.0 | 0.00 | 0.00 | 0.00 | 62 | 1010.8 |
| 20260903151458 | 81 | 114 | 7.0 | 10.0 | 0.00 | 0.00 | 0.00 | 63 | 1010.8 |
| 20260903150956 | 80 | 127 | 7.0 | 10.0 | 0.00 | 0.00 | 0.00 | 63 | 1010.8 |
| 20260903150458 | 80 | 109 | 7.0 | 11.0 | 0.00 | 0.00 | 0.00 | 63 | 1010.8 |
| 20260903150000 | 80 | 116 | 5.0 | 10.0 | 0.00 | 0.00 | 0.00 | 63 | 1010.8 |
| 20260903145001 | 80 | 106 | 7.0 | 8.0 | 0.00 | 0.00 | 0.00 | 64 | 1010.8 |
| 20260903144502 | 80 | 146 | 6.0 | 9.0 | 0.00 | 0.00 | 0.00 | 64 | 1010.8 |
| 20260903144001 | 80 | 126 | 6.0 | 9.0 | 0.00 | 0.00 | 0.00 | 64 | 1010.8 |
| 20260903143503 | 80 | 98 | 6.0 | 9.0 | 0.00 | 0.00 | 0.00 | 65 | 1010.8 |
| 20260903143005 | 79 | 125 | 7.0 | 10.0 | 0.00 | 0.00 | 0.00 | 66 | 1010.8 |
| 20260903142459 | 79 | 124 | 7.0 | 11.0 | 0.00 | 0.00 | 0.00 | 66 | 1010.8 |
| 20260903142001 | 79 | 125 | 5.0 | 10.0 | 0.00 | 0.00 | 0.00 | 67 | 1010.8 |
| 20260903141502 | 79 | 119 | 8.0 | 9.0 | 0.00 | 0.00 | 0.00 | 66 | 1010.8 |
| 20260903141001 | 79 | 109 | 3.0 | 9.0 | 0.00 | 0.00 | 0.00 | 66 | 1010.8 |
| 20260903140503 | 79 | 118 | 7.0 | 11.0 | 0.00 | 0.00 | 0.00 | 66 | 1010.8 |
| 20260903140005 | 79 | 125 | 7.0 | 8.0 | 0.00 | 0.00 | 0.00 | 66 | 1010.8 |
| 20260903135504 | 79 | 125 | 4.0 | 10.0 | 0.00 | 0.00 | 0.00 | 67 | 1010.8 |
| 20260903134946 | 78 | 135 | 7.0 | 8.0 | 0.00 | 0.00 | 0.00 | 68 | 1010.8 |
| 20260903134448 | 78 | 134 | 7.0 | 8.0 | 0.00 | 0.00 | 0.00 | 68 | 1010.8 |
| 20260903133946 | 78 | 126 | 5.0 | 10.0 | 0.00 | 0.00 | 0.00 | 68 | 1010.8 |
| 20260903133448 | 78 | 123 | 6.0 | 10.0 | 0.00 | 0.00 | 0.00 | 69 | 1010.8 |
| 20260903132950 | 78 | 120 | 8.0 | 10.0 | 0.00 | 0.00 | 0.00 | 70 | 1010.8 |
| 20260903132449 | 78 | 131 | 6.0 | 10.0 | 0.00 | 0.00 | 0.00 | 70 | 1010.8 |
| 20260903131951 | 78 | 129 | 7.0 | 8.0 | 0.00 | 0.00 | 0.00 | 70 | 1010.8 |
| 20260903131448 | 78 | 148 | 5.0 | 8.0 | 0.00 | 0.00 | 0.00 | 70 | 1010.8 |
| 20260903130947 | 78 | 117 | 6.0 | 8.0 | 0.00 | 0.00 | 0.00 | 70 | 1010.8 |
| 20260903130449 | 78 | 114 | 7.0 | 7.0 | 0.00 | 0.00 | 0.00 | 71 | 1010.8 |
| 20260903125950 | 78 | 119 | 5.0 | 7.0 | 0.00 | 0.00 | 0.00 | 70 | 1010.8 |
| 20260903125449 | 78 | 119 | 5.0 | 9.0 | 0.00 | 0.00 | 0.00 | 70 | 1010.8 |
| 20260903124951 | 78 | 116 | 7.0 | 7.0 | 0.00 | 0.00 | 0.00 | 70 | 1010.8 |
| 20260903124453 | 78 | 114 | 5.0 | 7.0 | 0.00 | 0.00 | 0.00 | 70 | 1010.8 |
| 20260903123951 | 78 | 135 | 4.0 | 7.0 | 0.00 | 0.00 | 0.00 | 69 | 1010.8 |
| 20260903123453 | 77 | 133 | 5.0 | 7.0 | 0.00 | 0.00 | 0.00 | 70 | 1010.8 |
| 20260903122955 | 77 | 112 | 6.0 | 7.0 | 0.00 | 0.00 | 0.00 | 70 | 1010.8 |
| 20260903122454 | 77 | 119 | 6.0 | 8.0 | 0.00 | 0.00 | 0.00 | 69 | 1010.8 |
| 20260903121956 | 77 | 131 | 7.0 | 9.0 | 0.00 | 0.00 | 0.00 | 69 | 1010.8 |
| 20260903121457 | 77 | 129 | 4.0 | 8.0 | 0.00 | 0.00 | 0.00 | 69 | 1010.8 |
| 20260903120956 | 77 | 120 | 4.0 | 10.0 | 0.00 | 0.00 | 0.00 | 69 | 1010.8 |
| 20260903120458 | 77 | 120 | 5.0 | 11.0 | 0.00 | 0.00 | 0.00 | 69 | 1010.8 |
| 20260903120000 | 77 | 127 | 8.0 | 9.0 | 0.00 | 0.00 | 0.00 | 68 | 1010.8 |
| 20260903115458 | 77 | 109 | 6.0 | 10.0 | 0.00 | 0.00 | 0.00 | 68 | 1010.8 |
| 20260903114956 | 77 | 110 | 6.0 | 10.0 | 0.00 | 0.00 | 0.00 | 68 | 1010.8 |
| 20260903114457 | 77 | 115 | 6.0 | 11.0 | 0.00 | 0.00 | 0.00 | 68 | 1010.8 |
| 20260903113956 | 77 | 128 | 7.0 | 10.0 | 0.00 | 0.00 | 0.00 | 67 | 1010.8 |
| 20260903113449 | 77 | 111 | 7.0 | 10.0 | 0.00 | 0.00 | 0.00 | 67 | 1010.8 |
| 20260903112946 | 77 | 119 | 6.0 | 10.0 | 0.00 | 0.00 | 0.00 | 66 | 1010.8 |
| 20260903112445 | 77 | 109 | 7.0 | 10.0 | 0.00 | 0.00 | 0.00 | 66 | 1010.8 |
| 20260903111946 | 77 | 105 | 7.0 | 10.0 | 0.00 | 0.00 | 0.00 | 65 | 1010.8 |
| 20260903111448 | 77 | 104 | 7.0 | 9.0 | 0.00 | 0.00 | 0.00 | 64 | 1009.8 |
| 20260903110947 | 77 | 109 | 7.0 | 9.0 | 0.00 | 0.00 | 0.00 | 64 | 1009.8 |
| 20260903105946 | 77 | 119 | 6.0 | 8.0 | 0.00 | 0.00 | 0.00 | 64 | 1009.8 |
| 20260903105444 | 77 | 114 | 6.0 | 8.0 | 0.00 | 0.00 | 0.00 | 64 | 1009.8 |
| 20260903104937 | 78 | 109 | 6.0 | 8.0 | 0.00 | 0.00 | 0.00 | 64 | 1009.8 |
| 20260903104439 | 77 | 116 | 6.0 | 8.0 | 0.00 | 0.00 | 0.00 | 63 | 1009.8 |
| 20260903103937 | 78 | 119 | 7.0 | 8.0 | 0.00 | 0.00 | 0.00 | 63 | 1009.8 |
| 20260903103439 | 77 | 115 | 7.0 | 9.0 | 0.00 | 0.00 | 0.00 | 63 | 1009.8 |
| 20260903102941 | 77 | 115 | 7.0 | 9.0 | 0.00 | 0.00 | 0.00 | 63 | 1009.8 |
| 20260903102439 | 78 | 126 | 6.0 | 8.0 | 0.00 | 0.00 | 0.00 | 62 | 1009.8 |
| 20260903101941 | 78 | 109 | 6.0 | 7.0 | 0.00 | 0.00 | 0.00 | 62 | 1009.8 |
| 20260903101439 | 78 | 110 | 6.0 | 5.0 | 0.00 | 0.00 | 0.00 | 62 | 1009.8 |
| 20260903100932 | 78 | 117 | 3.0 | 5.0 | 0.00 | 0.00 | 0.00 | 62 | 1009.8 |
| 20260903100434 | 78 | 116 | 0.0 | 6.0 | 0.00 | 0.00 | 0.00 | 61 | 1009.8 |
| 20260903095936 | 78 | 116 | 3.0 | 7.0 | 0.00 | 0.00 | 0.00 | 61 | 1009.8 |
| 20260903095435 | 78 | 116 | 5.0 | 7.0 | 0.00 | 0.00 | 0.00 | 60 | 1009.8 |
| 20260903094937 | 78 | 119 | 6.0 | 6.0 | 0.00 | 0.00 | 0.00 | 60 | 1009.8 |
| 20260903094438 | 78 | 127 | 5.0 | 6.0 | 0.00 | 0.00 | 0.00 | 60 | 1009.8 |
| 20260903093937 | 78 | 162 | 4.0 | 0.0 | 0.00 | 0.00 | 0.00 | 60 | 1009.8 |
| 20260903092941 | 78 | 170 | 0.0 | 0.0 | 0.00 | 0.00 | 0.00 | 59 | 1009.8 |
| 20260903091941 | 78 | 170 | 0.0 | 0.0 | 0.00 | 0.00 | 0.00 | 58 | 1009.8 |
| 20260903091443 | 78 | 170 | 0.0 | 0.0 | 0.00 | 0.00 | 0.00 | 58 | 1009.8 |
| 20260903090942 | 78 | 170 | 0.0 | 0.0 | 0.00 | 0.00 | 0.00 | 58 | 1009.8 |
| 20260903090444 | 78 | 170 | 0.0 | 0.0 | 0.00 | 0.00 | 0.00 | 58 | 1009.8 |
| 20260903085945 | 78 | 170 | 0.0 | 0.0 | 0.00 | 0.00 | 0.00 | 57 | 1009.8 |
| 20260903085444 | 78 | 170 | 0.0 | 0.0 | 0.00 | 0.00 | 0.00 | 56 | 1009.8 |
| 20260903084946 | 79 | 170 | 0.0 | 3.0 | 0.00 | 0.00 | 0.00 | 56 | 1009.8 |
| 20260903084448 | 78 | 170 | 0.0 | 6.0 | 0.00 | 0.00 | 0.00 | 56 | 1010.8 |
| 20260903083946 | 78 | 170 | 0.0 | 4.0 | 0.00 | 0.00 | 0.00 | 55 | 1010.8 |
| 20260903083448 | 79 | 172 | 0.0 | 4.0 | 0.00 | 0.00 | 0.00 | 55 | 1010.8 |
| 20260903082950 | 79 | 172 | 0.0 | 3.0 | 0.00 | 0.00 | 0.00 | 54 | 1010.8 |
| 20260903082449 | 79 | 173 | 0.0 | 0.0 | 0.00 | 0.00 | 0.00 | 54 | 1010.8 |
| 20260903081951 | 79 | 173 | 0.0 | 4.0 | 0.00 | 0.00 | 0.00 | 53 | 1010.8 |
| 20260903081452 | 79 | 173 | 0.0 | 4.0 | 0.00 | 0.00 | 0.00 | 52 | 1010.8 |
| 20260903080951 | 79 | 173 | 3.0 | 3.0 | 0.00 | 0.00 | 0.00 | 52 | 1010.8 |
| 20260903080453 | 79 | 171 | 0.0 | 5.0 | 0.00 | 0.00 | 0.00 | 51 | 1010.8 |
| 20260903075955 | 79 | 155 | 0.0 | 4.0 | 0.00 | 0.00 | 0.00 | 51 | 1009.8 |
| 20260903075453 | 79 | 163 | 3.0 | 4.0 | 0.00 | 0.00 | 0.00 | 51 | 1009.8 |
| 20260903074955 | 79 | 129 | 3.0 | 6.0 | 0.00 | 0.00 | 0.00 | 50 | 1009.8 |
| 20260903074457 | 79 | 129 | 0.0 | 6.0 | 0.00 | 0.00 | 0.00 | 50 | 1010.8 |
| 20260903073951 | 79 | 141 | 0.0 | 5.0 | 0.00 | 0.00 | 0.00 | 49 | 1010.8 |
| 20260903073452 | 79 | 167 | 3.0 | 4.0 | 0.00 | 0.00 | 0.00 | 49 | 1010.8 |
| 20260903072949 | 79 | 145 | 3.0 | 4.0 | 0.00 | 0.00 | 0.00 | 48 | 1009.8 |
| 20260903072448 | 79 | 147 | 0.0 | 4.0 | 0.00 | 0.00 | 0.00 | 47 | 1009.8 |
| 20260903071950 | 80 | 146 | 0.0 | 4.0 | 0.00 | 0.00 | 0.00 | 47 | 1009.8 |
| 20260903071452 | 80 | 146 | 3.0 | 4.0 | 0.00 | 0.00 | 0.00 | 47 | 1010.8 |
| 20260903070950 | 80 | 143 | 3.0 | 6.0 | 0.00 | 0.00 | 0.00 | 47 | 1010.8 |
| 20260903070452 | 80 | 131 | 3.0 | 6.0 | 0.00 | 0.00 | 0.00 | 47 | 1010.8 |
| 20260903065954 | 80 | 126 | 0.0 | 6.0 | 0.00 | 0.00 | 0.00 | 46 | 1010.8 |
| 20260903065453 | 80 | 165 | 3.0 | 7.0 | 0.00 | 0.00 | 0.00 | 46 | 1010.8 |
| 20260903064954 | 80 | 131 | 0.0 | 7.0 | 0.00 | 0.00 | 0.00 | 45 | 1010.8 |
| 20260903064456 | 80 | 120 | 4.0 | 8.0 | 0.00 | 0.00 | 0.00 | 45 | 1010.8 |
| 20260903063955 | 80 | 133 | 5.0 | 7.0 | 0.00 | 0.00 | 0.00 | 45 | 1010.8 |
| 20260903063457 | 80 | 148 | 4.0 | 7.0 | 0.00 | 0.00 | 0.00 | 44 | 1010.8 |
| 20260903062959 | 80 | 123 | 4.0 | 8.0 | 0.00 | 0.00 | 0.00 | 44 | 1010.8 |
| 20260903062457 | 80 | 130 | 5.0 | 11.0 | 0.00 | 0.00 | 0.00 | 44 | 1010.8 |
| 20260903061959 | 80 | 125 | 7.0 | 11.0 | 0.00 | 0.00 | 0.00 | 44 | 1010.8 |
| 20260903061456 | 81 | 129 | 5.0 | 10.0 | 0.00 | 0.00 | 0.00 | 43 | 1010.8 |
| 20260903060955 | 81 | 131 | 5.0 | 10.0 | 0.00 | 0.00 | 0.00 | 43 | 1010.8 |
| 20260903060457 | 81 | 133 | 5.0 | 12.0 | 0.00 | 0.00 | 0.00 | 43 | 1010.8 |
| 20260903055959 | 81 | 115 | 6.0 | 10.0 | 0.00 | 0.00 | 0.00 | 42 | 1010.8 |
| 20260903055457 | 81 | 125 | 6.0 | 13.0 | 0.00 | 0.00 | 0.00 | 42 | 1010.8 |
| 20260903054959 | 81 | 124 | 9.0 | 10.0 | 0.00 | 0.00 | 0.00 | 41 | 1010.8 |
| 20260903054501 | 82 | 118 | 5.0 | 13.0 | 0.00 | 0.00 | 0.00 | 40 | 1010.8 |
| 20260903053955 | 82 | 144 | 7.0 | 12.0 | 0.00 | 0.00 | 0.00 | 40 | 1010.8 |
| 20260903053457 | 82 | 135 | 8.0 | 11.0 | 0.00 | 0.00 | 0.00 | 39 | 1010.8 |
| 20260903052958 | 82 | 129 | 8.0 | 12.0 | 0.00 | 0.00 | 0.00 | 39 | 1010.8 |
| 20260903052453 | 83 | 162 | 5.0 | 10.0 | 0.00 | 0.00 | 0.00 | 38 | 1010.8 |
| 20260903051950 | 83 | 133 | 7.0 | 10.0 | 0.00 | 0.00 | 0.00 | 38 | 1010.8 |
| 20260903051451 | 83 | 128 | 5.0 | 10.0 | 0.00 | 0.00 | 0.00 | 38 | 1010.8 |
| 20260903050950 | 83 | 117 | 8.0 | 13.0 | 0.00 | 0.00 | 0.00 | 37 | 1010.8 |
| 20260903050452 | 83 | 108 | 10.0 | 11.0 | 0.00 | 0.00 | 0.00 | 37 | 1010.8 |
| 20260903045954 | 83 | 109 | 7.0 | 12.0 | 0.00 | 0.00 | 0.00 | 36 | 1010.8 |
| 20260903045452 | 83 | 131 | 6.0 | 10.0 | 0.00 | 0.00 | 0.00 | 36 | 1010.8 |
| 20260903044954 | 84 | 111 | 8.0 | 11.0 | 0.00 | 0.00 | 0.00 | 36 | 1010.8 |
| 20260903044456 | 84 | 113 | 8.0 | 11.0 | 0.00 | 0.00 | 0.00 | 35 | 1010.8 |
| 20260903043955 | 84 | 119 | 5.0 | 10.0 | 0.00 | 0.00 | 0.00 | 35 | 1010.8 |
| 20260903043456 | 84 | 129 | 9.0 | 13.0 | 0.00 | 0.00 | 0.00 | 34 | 1010.8 |
| 20260903042958 | 84 | 128 | 7.0 | 11.0 | 0.00 | 0.00 | 0.00 | 35 | 1010.8 |
| 20260903042457 | 85 | 116 | 10.0 | 12.0 | 0.00 | 0.00 | 0.00 | 34 | 1010.8 |
| 20260903041959 | 85 | 112 | 7.0 | 13.0 | 0.00 | 0.00 | 0.00 | 33 | 1010.8 |
| 20260903041501 | 85 | 130 | 9.0 | 12.0 | 0.00 | 0.00 | 0.00 | 32 | 1010.8 |
| 20260903040959 | 85 | 132 | 9.0 | 10.0 | 0.00 | 0.00 | 0.00 | 32 | 1010.8 |
| 20260903040457 | 86 | 129 | 7.0 | 11.0 | 0.00 | 0.00 | 0.00 | 31 | 1010.8 |
| 20260903035959 | 86 | 127 | 8.0 | 12.0 | 0.00 | 0.00 | 0.00 | 31 | 1010.8 |
| 20260903035457 | 86 | 118 | 7.0 | 11.0 | 0.00 | 0.00 | 0.00 | 30 | 1010.8 |
| 20260903034935 | 86 | 124 | 5.0 | 10.0 | 0.00 | 0.00 | 0.00 | 30 | 1010.8 |
| 20260903034436 | 87 | 125 | 7.0 | 14.0 | 0.00 | 0.00 | 0.00 | 29 | 1010.8 |
| 20260903033935 | 87 | 111 | 10.0 | 13.0 | 0.00 | 0.00 | 0.00 | 29 | 1010.8 |
| 20260903033437 | 87 | 155 | 10.0 | 14.0 | 0.00 | 0.00 | 0.00 | 28 | 1010.8 |
| 20260903032939 | 87 | 128 | 10.0 | 15.0 | 0.00 | 0.00 | 0.00 | 28 | 1010.8 |
| 20260903032433 | 87 | 132 | 7.0 | 15.0 | 0.00 | 0.00 | 0.00 | 28 | 1010.8 |
| 20260903031934 | 87 | 123 | 11.0 | 12.0 | 0.00 | 0.00 | 0.00 | 28 | 1010.8 |
| 20260903031436 | 87 | 116 | 8.0 | 15.0 | 0.00 | 0.00 | 0.00 | 27 | 1010.8 |
| 20260903030930 | 88 | 112 | 10.0 | 18.0 | 0.00 | 0.00 | 0.00 | 27 | 1010.8 |
| 20260903030427 | 88 | 118 | 12.0 | 16.0 | 0.00 | 0.00 | 0.00 | 26 | 1010.8 |
| 20260903025928 | 88 | 98 | 12.0 | 15.0 | 0.00 | 0.00 | 0.00 | 25 | 1010.8 |
| 20260903025427 | 88 | 119 | 10.0 | 13.0 | 0.00 | 0.00 | 0.00 | 24 | 1010.8 |
| 20260903024929 | 88 | 113 | 11.0 | 12.0 | 0.00 | 0.00 | 0.00 | 24 | 1009.8 |
| 20260903024431 | 89 | 115 | 10.0 | 13.0 | 0.00 | 0.00 | 0.00 | 23 | 1009.8 |
| 20260903023925 | 89 | 142 | 10.0 | 10.0 | 0.00 | 0.00 | 0.00 | 23 | 1009.8 |
| 20260903023426 | 89 | 132 | 6.0 | 14.0 | 0.00 | 0.00 | 0.00 | 23 | 1009.8 |
| 20260903022928 | 89 | 108 | 12.0 | 14.0 | 0.00 | 0.00 | 0.00 | 22 | 1009.8 |
| 20260903022427 | 89 | 91 | 9.0 | 13.0 | 0.00 | 0.00 | 0.00 | 22 | 1009.8 |
| 20260903021929 | 89 | 128 | 6.0 | 13.0 | 0.00 | 0.00 | 0.00 | 22 | 1009.8 |
| 20260903021421 | 90 | 118 | 10.0 | 12.0 | 0.00 | 0.00 | 0.00 | 22 | 1009.8 |
| 20260903020920 | 90 | 112 | 8.0 | 12.0 | 0.00 | 0.00 | 0.00 | 22 | 1009.8 |
| 20260903020422 | 90 | 119 | 9.0 | 14.0 | 0.00 | 0.00 | 0.00 | 22 | 1009.8 |
| 20260903015924 | 90 | 164 | 10.0 | 11.0 | 0.00 | 0.00 | 0.00 | 21 | 1009.8 |
| 20260903015418 | 90 | 122 | 7.0 | 15.0 | 0.00 | 0.00 | 0.00 | 21 | 1009.8 |
| 20260903014919 | 90 | 126 | 11.0 | 17.0 | 0.00 | 0.00 | 0.00 | 20 | 1009.8 |
| 20260903014421 | 90 | 132 | 10.0 | 14.0 | 0.00 | 0.00 | 0.00 | 19 | 1009.8 |
| 20260903013920 | 91 | 128 | 11.0 | 15.0 | 0.00 | 0.00 | 0.00 | 18 | 1009.8 |
| 20260903013422 | 91 | 115 | 8.0 | 15.0 | 0.00 | 0.00 | 0.00 | 18 | 1008.8 |
| 20260903012923 | 92 | 129 | 10.0 | 15.0 | 0.00 | 0.00 | 0.00 | 17 | 1008.8 |
| 20260903012417 | 92 | 125 | 9.0 | 17.0 | 0.00 | 0.00 | 0.00 | 17 | 1008.8 |
| 20260903011919 | 93 | 94 | 9.0 | 13.0 | 0.00 | 0.00 | 0.00 | 17 | 1008.8 |
| 20260903011421 | 93 | 108 | 8.0 | 18.0 | 0.00 | 0.00 | 0.00 | 17 | 1008.8 |
| 20260903010919 | 93 | 108 | 13.0 | 13.0 | 0.00 | 0.00 | 0.00 | 17 | 1008.8 |
| 20260903010421 | 93 | 111 | 10.0 | 16.0 | 0.00 | 0.00 | 0.00 | 17 | 1008.8 |
| 20260903005923 | 93 | 128 | 12.0 | 14.0 | 0.00 | 0.00 | 0.00 | 17 | 1008.8 |
| 20260903005422 | 93 | 154 | 10.0 | 21.0 | 0.00 | 0.00 | 0.00 | 17 | 1008.8 |
| 20260903004923 | 94 | 137 | 13.0 | 18.0 | 0.00 | 0.00 | 0.00 | 17 | 1008.8 |
| 20260903004425 | 94 | 129 | 11.0 | 11.0 | 0.00 | 0.00 | 0.00 | 16 | 1008.8 |
| 20260903003923 | 95 | 242 | 7.0 | 11.0 | 0.00 | 0.00 | 0.00 | 16 | 1008.8 |
| 20260903003425 | 96 | 125 | 8.0 | 12.0 | 0.00 | 0.00 | 0.00 | 16 | 1008.8 |
| 20260903002927 | 96 | 127 | 7.0 | 12.0 | 0.00 | 0.00 | 0.00 | 16 | 1008.8 |
| 20260903002426 | 96 | 107 | 5.0 | 10.0 | 0.00 | 0.00 | 0.00 | 16 | 1008.8 |